TimeCST,TemperatureF,Dew PointF,Humidity,Sea Level PressureIn,VisibilityMPH,Wind Direction,Wind SpeedMPH,Gust SpeedMPH,PrecipitationIn,Events,Conditions,WindDirDegrees,DateUTC
12:15 AM,12.2,6.8,79,30.38,10.0,NW,6.9,-,N/A,,Overcast,320,2013-02-21 06:15:00
12:35 AM,12.2,5.0,73,30.38,10.0,WNW,5.8,-,N/A,,Mostly Cloudy,300,2013-02-21 06:35:00
12:55 AM,12.2,3.2,67,30.39,10.0,WNW,4.6,-,N/A,,Clear,290,2013-02-21 06:55:00
1:15 AM,12.2,3.2,67,30.38,10.0,WNW,5.8,-,N/A,,Clear,290,2013-02-21 07:15:00
1:35 AM,10.4,3.2,73,30.39,10.0,WNW,4.6,-,N/A,,Mostly Cloudy,290,2013-02-21 07:35:00
1:55 AM,10.4,3.2,73,30.39,10.0,WNW,4.6,-,N/A,,Overcast,290,2013-02-21 07:55:00
2:15 AM,10.4,5.0,79,30.39,10.0,WNW,6.9,-,N/A,,Overcast,300,2013-02-21 08:15:00
2:35 AM,10.4,5.0,79,30.38,10.0,NW,6.9,-,N/A,,Overcast,320,2013-02-21 08:35:00
2:55 AM,10.4,5.0,79,30.38,10.0,WNW,6.9,-,N/A,,Overcast,300,2013-02-21 08:55:00
3:15 AM,12.2,5.0,73,30.38,10.0,WNW,9.2,-,N/A,,Overcast,300,2013-02-21 09:15:00
3:35 AM,12.2,6.8,79,30.38,10.0,NW,9.2,-,N/A,,Overcast,310,2013-02-21 09:35:00
3:55 AM,12.2,6.8,79,30.38,10.0,NNW,10.4,-,N/A,,Overcast,330,2013-02-21 09:55:00
4:15 AM,12.2,6.8,79,30.39,10.0,NW,9.2,-,N/A,,Overcast,320,2013-02-21 10:15:00
4:35 AM,12.2,8.6,85,30.39,10.0,NW,9.2,-,N/A,,Overcast,310,2013-02-21 10:35:00
4:55 AM,12.2,8.6,85,30.40,10.0,NNW,11.5,-,N/A,,Overcast,330,2013-02-21 10:55:00
5:15 AM,14.0,8.6,79,30.41,10.0,NNW,10.4,-,N/A,,Overcast,330,2013-02-21 11:15:00
5:55 AM,14.0,8.6,79,30.41,10.0,NNW,11.5,-,N/A,,Overcast,330,2013-02-21 11:55:00
6:15 AM,14.0,8.6,79,30.41,10.0,NNW,9.2,-,N/A,,Overcast,330,2013-02-21 12:15:00
6:35 AM,14.0,8.6,79,30.39,10.0,NNW,10.4,-,N/A,,Overcast,340,2013-02-21 12:35:00
6:55 AM,14.0,8.6,79,30.37,10.0,North,10.4,-,N/A,,Overcast,360,2013-02-21 12:55:00
7:15 AM,15.8,10.4,79,30.35,10.0,North,8.1,-,N/A,,Overcast,360,2013-02-21 13:15:00
7:35 AM,15.8,10.4,79,30.33,10.0,North,10.4,-,N/A,,Overcast,10,2013-02-21 13:35:00
7:55 AM,15.8,12.2,86,30.35,10.0,North,9.2,-,N/A,,Overcast,350,2013-02-21 13:55:00
8:15 AM,17.6,12.2,79,30.41,10.0,West,5.8,-,N/A,,Overcast,280,2013-02-21 14:15:00
8:35 AM,17.6,12.2,79,30.40,10.0,NNW,6.9,-,N/A,,Overcast,330,2013-02-21 14:35:00
8:55 AM,17.6,12.2,79,30.40,10.0,NNW,8.1,-,N/A,,Overcast,340,2013-02-21 14:55:00
9:15 AM,17.6,14.0,86,30.39,10.0,NNW,10.4,-,N/A,,Overcast,340,2013-02-21 15:15:00
9:35 AM,19.4,14.0,80,30.39,10.0,NNW,11.5,-,N/A,,Overcast,330,2013-02-21 15:35:00
9:55 AM,19.4,14.0,80,30.41,10.0,NW,10.4,-,N/A,,Overcast,320,2013-02-21 15:55:00
10:15 AM,19.4,14.0,80,30.40,10.0,NW,9.2,-,N/A,,Overcast,320,2013-02-21 16:15:00
10:35 AM,19.4,15.8,86,30.40,10.0,NNW,11.5,-,N/A,,Overcast,340,2013-02-21 16:35:00
10:55 AM,19.4,15.8,86,30.39,10.0,North,10.4,-,N/A,,Overcast,350,2013-02-21 16:55:00
11:15 AM,19.4,15.8,86,30.39,10.0,NNW,10.4,-,N/A,,Overcast,340,2013-02-21 17:15:00
11:35 AM,19.4,15.8,86,30.39,10.0,NNW,12.7,-,N/A,,Overcast,330,2013-02-21 17:35:00
12:15 PM,21.2,17.6,86,30.38,10.0,NNW,12.7,-,N/A,,Overcast,330,2013-02-21 18:15:00
12:35 PM,21.2,17.6,86,30.37,10.0,NNW,8.1,-,N/A,,Overcast,340,2013-02-21 18:35:00
12:55 PM,23.0,19.4,86,30.36,10.0,NNW,11.5,-,N/A,,Overcast,340,2013-02-21 18:55:00
1:15 PM,23.0,17.6,80,30.34,10.0,North,11.5,16.1,N/A,,Overcast,350,2013-02-21 19:15:00
1:35 PM,23.0,19.4,86,30.32,10.0,North,12.7,-,N/A,,Overcast,10,2013-02-21 19:35:00
1:55 PM,23.0,19.4,86,30.31,10.0,North,12.7,20.7,N/A,,Overcast,10,2013-02-21 19:55:00
2:15 PM,23.0,19.4,86,30.31,10.0,North,11.5,18.4,N/A,,Overcast,10,2013-02-21 20:15:00
2:35 PM,23.0,19.4,86,30.30,10.0,North,9.2,-,N/A,,Overcast,10,2013-02-21 20:35:00
2:55 PM,23.0,19.4,86,30.29,10.0,North,12.7,-,N/A,,Overcast,360,2013-02-21 20:55:00
3:15 PM,24.8,21.2,86,30.30,10.0,NE,10.4,18.4,N/A,,Overcast,40,2013-02-21 21:15:00
3:35 PM,24.8,21.2,86,30.30,10.0,NE,11.5,19.6,N/A,,Overcast,40,2013-02-21 21:35:00
3:55 PM,26.6,21.2,80,30.31,10.0,NE,13.8,-,N/A,,Overcast,40,2013-02-21 21:55:00
4:15 PM,26.6,21.2,80,30.31,10.0,NE,9.2,-,N/A,,Overcast,40,2013-02-21 22:15:00
4:35 PM,26.6,21.2,80,30.30,10.0,NE,12.7,18.4,N/A,,Overcast,40,2013-02-21 22:35:00
4:55 PM,26.6,21.2,80,30.29,10.0,NE,11.5,18.4,N/A,,Overcast,40,2013-02-21 22:55:00
5:15 PM,26.6,21.2,80,30.30,10.0,NE,10.4,19.6,N/A,,Overcast,40,2013-02-21 23:15:00
5:35 PM,24.8,21.2,86,30.29,10.0,ENE,12.7,17.3,N/A,,Overcast,60,2013-02-21 23:35:00
5:55 PM,24.8,19.4,80,30.28,10.0,NE,12.7,18.4,N/A,,Overcast,50,2013-02-21 23:55:00
6:15 PM,24.8,19.4,80,30.28,10.0,NE,11.5,18.4,N/A,,Overcast,50,2013-02-22 00:15:00
6:35 PM,24.8,19.4,80,30.27,10.0,ENE,18.4,-,N/A,,Overcast,60,2013-02-22 00:35:00
6:55 PM,24.8,21.2,86,30.26,10.0,NE,13.8,19.6,N/A,,Overcast,50,2013-02-22 00:55:00
7:15 PM,24.8,19.4,80,30.26,10.0,ENE,9.2,16.1,N/A,,Overcast,60,2013-02-22 01:15:00
7:35 PM,24.8,19.4,80,30.26,10.0,ENE,11.5,18.4,N/A,,Overcast,70,2013-02-22 01:35:00
7:55 PM,24.8,19.4,80,30.25,10.0,ENE,17.3,-,N/A,,Overcast,70,2013-02-22 01:55:00
8:15 PM,24.8,19.4,80,30.24,10.0,East,16.1,20.7,N/A,,Overcast,80,2013-02-22 02:15:00
8:35 PM,24.8,19.4,80,30.23,10.0,ENE,13.8,18.4,N/A,,Overcast,70,2013-02-22 02:35:00
8:55 PM,24.8,19.4,80,30.22,10.0,ENE,12.7,19.6,N/A,,Overcast,70,2013-02-22 02:55:00
9:15 PM,24.8,17.6,74,30.21,10.0,ENE,13.8,19.6,N/A,,Overcast,60,2013-02-22 03:15:00
9:35 PM,26.6,17.6,69,30.20,10.0,East,15.0,20.7,N/A,,Mostly Cloudy,80,2013-02-22 03:35:00
9:55 PM,26.6,15.8,64,30.18,10.0,East,17.3,23.0,N/A,,Partly Cloudy,80,2013-02-22 03:55:00
10:15 PM,26.6,15.8,64,30.17,10.0,ENE,16.1,-,N/A,,Partly Cloudy,70,2013-02-22 04:15:00
10:35 PM,26.6,15.8,64,30.18,10.0,East,19.6,25.3,N/A,,Partly Cloudy,80,2013-02-22 04:35:00
10:55 PM,26.6,15.8,64,30.16,10.0,ENE,23.0,29.9,N/A,,Clear,70,2013-02-22 04:55:00
11:15 PM,26.6,15.8,64,30.16,10.0,East,21.9,27.6,N/A,,Partly Cloudy,80,2013-02-22 05:15:00
11:35 PM,24.8,15.8,69,30.15,10.0,East,15.0,24.2,N/A,,Scattered Clouds,80,2013-02-22 05:35:00
11:55 PM,24.8,15.8,69,30.15,10.0,East,20.7,24.2,N/A,,Mostly Cloudy,80,2013-02-22 05:55:00